When you browse on this site, cookies collect data to enhance your experience and personalize the content and advertising you see.
Visit our Privacy Policy to learn more. By continuing to use the site, you agree to this use of cookies and data.
  • In United Kingdom
  • List of Countries
  • For 7 days
  • Water Temperature
  • Satellite Maps
  • Weather Map
  • Weather Widgets
  • user-avatar
    Login

    Hourly Weather Brazzaville

    Today, 25 June, Tuesday

    Time Temperature Precipitation Wind Pressure Humidity
    00:00 +25°C° 0 mm 1 mps 734 mmHg 61%
    01:00 +25°C° 0 mm 1 mps 734 mmHg 62%
    02:00 +24°C° 0 mm 1 mps 734 mmHg 66%
    03:00 +23°C° 0 mm 1 mps 734 mmHg 70%
    04:00 +23°C° 0 mm 1 mps 734 mmHg 74%
    05:00 +23°C° 0 mm 1 mps 734 mmHg 76%
    06:00 +23°C° 0 mm 1 mps 735 mmHg 78%
    07:00 +23°C° 0 mm 1 mps 735 mmHg 80%
    08:00 +25°C° 0 mm 1 mps 735 mmHg 70%
    09:00 +27°C° 0 mm 2 mps 736 mmHg 61%
    10:00 +30°C° 0 mm 2 mps 736 mmHg 51%
    11:00 +32°C° 0 mm 2 mps 735 mmHg 45%
    12:00 +34°C° 0 mm 2 mps 734 mmHg 39%
    13:00 +36°C° 0 mm 2 mps 734 mmHg 33%
    14:00 +36°C° 0 mm 2 mps 733 mmHg 32%
    15:00 +36°C° 0 mm 2 mps 733 mmHg 32%
    16:00 +36°C° 0 mm 2 mps 732 mmHg 31%
    17:00 +34°C° 0 mm 2 mps 732 mmHg 36%
    18:00 +31°C° 0 mm 2 mps 733 mmHg 40%
    19:00 +29°C° 0 mm 2 mps 733 mmHg 45%
    20:00 +28°C° 0 mm 2 mps 734 mmHg 47%
    21:00 +27°C° 0 mm 2 mps 734 mmHg 49%
    22:00 +26°C° 0 mm 1 mps 735 mmHg 50%
    23:00 +25°C° 0 mm 1 mps 735 mmHg 54%

    Tomorrow, 26 June, Wednesday

    Time Temperature Precipitation Wind Pressure Humidity
    00:00 +25°C° 0 mm 2 mps 735 mmHg 58%
    01:00 +24°C° 0 mm 2 mps 735 mmHg 62%
    02:00 +23°C° 0 mm 2 mps 734 mmHg 68%
    03:00 +21°C° 0 mm 2 mps 734 mmHg 75%
    04:00 +21°C° 0 mm 2 mps 734 mmHg 82%
    05:00 +21°C° 0 mm 2 mps 735 mmHg 82%
    06:00 +21°C° 0 mm 2 mps 735 mmHg 82%
    07:00 +21°C° 0 mm 2 mps 736 mmHg 81%
    08:00 +24°C° 0 mm 2 mps 736 mmHg 73%
    09:00 +26°C° 0 mm 3 mps 736 mmHg 64%
    10:00 +28°C° 0 mm 3 mps 737 mmHg 55%
    11:00 +29°C° 0 mm 3 mps 736 mmHg 49%
    12:00 +31°C° 0 mm 3 mps 735 mmHg 43%
    13:00 +34°C° 0 mm 3 mps 735 mmHg 37%
    14:00 +34°C° 0 mm 3 mps 734 mmHg 35%
    15:00 +34°C° 0 mm 3 mps 734 mmHg 34%
    16:00 +34°C° 0 mm 3 mps 733 mmHg 33%
    17:00 +31°C° 0 mm 3 mps 734 mmHg 36%
    18:00 +30°C° 0 mm 2 mps 734 mmHg 39%
    19:00 +28°C° 0 mm 2 mps 734 mmHg 42%
    20:00 +27°C° 0 mm 2 mps 735 mmHg 45%
    21:00 +26°C° 0 mm 1 mps 735 mmHg 48%
    22:00 +25°C° 0 mm 1 mps 736 mmHg 51%
    23:00 +24°C° 0 mm 1 mps 736 mmHg 54%

    Day after tomorrow, 27 June, Thursday

    Time Temperature Precipitation Wind Pressure Humidity
    00:00 +24°C° 0 mm 1 mps 736 mmHg 58%
    01:00 +23°C° 0 mm 2 mps 735 mmHg 61%
    02:00 +22°C° 0 mm 1 mps 735 mmHg 68%
    03:00 +22°C° 0 mm 1 mps 735 mmHg 74%
    04:00 +21°C° 0 mm 1 mps 735 mmHg 81%
    05:00 +21°C° 0 mm 1 mps 735 mmHg 82%
    06:00 +20°C° 0 mm 2 mps 736 mmHg 83%
    07:00 +20°C° 0 mm 2 mps 736 mmHg 84%
    08:00 +23°C° 0 mm 2 mps 736 mmHg 72%
    09:00 +25°C° 0 mm 2 mps 736 mmHg 60%
    10:00 +27°C° 0 mm 2 mps 737 mmHg 48%
    11:00 +29°C° 0 mm 2 mps 736 mmHg 42%
    12:00 +31°C° 0 mm 2 mps 735 mmHg 37%
    13:00 +34°C° 0 mm 3 mps 735 mmHg 31%
    14:00 +34°C° 0 mm 3 mps 734 mmHg 31%
    15:00 +34°C° 0 mm 3 mps 734 mmHg 32%
    16:00 +34°C° 0 mm 3 mps 733 mmHg 32%
    17:00 +31°C° 0 mm 2 mps 733 mmHg 36%
    18:00 +29°C° 0 mm 2 mps 734 mmHg 41%
    19:00 +27°C° 0 mm 1 mps 734 mmHg 45%
    20:00 +26°C° 0 mm 1 mps 734 mmHg 48%
    21:00 +25°C° 0 mm 1 mps 735 mmHg 50%
    22:00 +25°C° 0 mm 1 mps 735 mmHg 52%
    23:00 +24°C° 0 mm 1 mps 735 mmHg 53%

    28 June, Friday

    Time Temperature Precipitation Wind Pressure Humidity
    00:00 +24°C° 0 mm 1 mps 735 mmHg 55%
    01:00 +23°C° 0 mm 1 mps 735 mmHg 56%
    02:00 +22°C° 0 mm 1 mps 735 mmHg 62%
    03:00 +22°C° 0 mm 1 mps 735 mmHg 69%
    04:00 +21°C° 0 mm 1 mps 734 mmHg 75%
    05:00 +21°C° 0 mm 1 mps 735 mmHg 77%
    06:00 +21°C° 0 mm 1 mps 735 mmHg 79%
    07:00 +21°C° 0 mm 1 mps 736 mmHg 80%
    08:00 +24°C° 0 mm 1 mps 736 mmHg 71%
    09:00 +26°C° 0 mm 1 mps 736 mmHg 61%
    10:00 +28°C° 0 mm 2 mps 736 mmHg 52%
    11:00 +30°C° 0 mm 2 mps 736 mmHg 46%
    12:00 +34°C° 0 mm 2 mps 735 mmHg 40%
    13:00 +35°C° 0 mm 1 mps 734 mmHg 34%
    14:00 +35°C° 0 mm 1 mps 734 mmHg 34%
    15:00 +35°C° 0 mm 1 mps 733 mmHg 33%
    16:00 +35°C° 0 mm 1 mps 733 mmHg 32%
    17:00 +33°C° 0 mm 1 mps 733 mmHg 38%
    18:00 +31°C° 0 mm 1 mps 733 mmHg 44%
    19:00 +29°C° 0 mm 2 mps 734 mmHg 49%
    20:00 +28°C° 0 mm 1 mps 734 mmHg 53%
    21:00 +27°C° 0 mm 1 mps 734 mmHg 56%
    22:00 +26°C° 0 mm 1 mps 735 mmHg 60%
    23:00 +25°C° 0 mm 1 mps 735 mmHg 62%

    29 June, Saturday

    Time Temperature Precipitation Wind Pressure Humidity
    00:00 +25°C° 0 mm 1 mps 735 mmHg 64%
    01:00 +24°C° 0 mm 1 mps 735 mmHg 66%
    02:00 +23°C° 0 mm 1 mps 735 mmHg 71%
    03:00 +22°C° 0 mm 1 mps 735 mmHg 75%
    04:00 +22°C° 0 mm 1 mps 735 mmHg 80%
    05:00 +22°C° 0 mm 1 mps 735 mmHg 81%
    06:00 +22°C° 0 mm 1 mps 736 mmHg 81%
    07:00 +22°C° 0 mm 1 mps 736 mmHg 82%
    08:00 +24°C° 0 mm 2 mps 736 mmHg 74%
    09:00 +26°C° 0 mm 2 mps 736 mmHg 66%
    10:00 +27°C° 0 mm 2 mps 737 mmHg 58%
    11:00 +29°C° 0 mm 2 mps 736 mmHg 52%
    12:00 +31°C° 0 mm 2 mps 735 mmHg 47%
    13:00 +34°C° 0 mm 2 mps 734 mmHg 41%
    14:00 +35°C° 0 mm 2 mps 734 mmHg 39%
    15:00 +35°C° 0 mm 2 mps 733 mmHg 38%
    16:00 +34°C° 0 mm 1 mps 733 mmHg 37%
    17:00 +32°C° 0 mm 1 mps 733 mmHg 43%
    18:00 +30°C° 0 mm 2 mps 733 mmHg 49%
    19:00 +28°C° 0 mm 2 mps 734 mmHg 55%
    20:00 +27°C° 0 mm 2 mps 734 mmHg 59%
    21:00 +26°C° 0 mm 1 mps 734 mmHg 62%
    22:00 +26°C° 0 mm 1 mps 735 mmHg 66%
    23:00 +25°C° 0 mm 1 mps 735 mmHg 68%

    30 June, Sunday

    Time Temperature Precipitation Wind Pressure Humidity
    00:00 +25°C° 0 mm 1 mps 735 mmHg 69%
    01:00 +24°C° 0 mm 1 mps 735 mmHg 71%
    02:00 +24°C° 0 mm 1 mps 735 mmHg 73%
    03:00 +23°C° 0 mm 1 mps 735 mmHg 76%
    04:00 +23°C° 0 mm 1 mps 735 mmHg 78%
    05:00 +23°C° 0 mm 1 mps 735 mmHg 79%
    06:00 +23°C° 0 mm 1 mps 736 mmHg 79%
    07:00 +23°C° 0 mm 1 mps 736 mmHg 80%
    08:00 +25°C° 0 mm 1 mps 736 mmHg 70%
    09:00 +27°C° 0 mm 2 mps 737 mmHg 60%
    10:00 +30°C° 0 mm 2 mps 737 mmHg 51%
    11:00 +31°C° 0 mm 2 mps 736 mmHg 46%
    12:00 +34°C° 0 mm 2 mps 735 mmHg 40%
    13:00 +36°C° 0 mm 2 mps 734 mmHg 35%
    14:00 +36°C° 0 mm 2 mps 734 mmHg 35%
    15:00 +36°C° 0 mm 2 mps 733 mmHg 35%
    16:00 +36°C° 0 mm 2 mps 733 mmHg 35%
    17:00 +34°C° 0 mm 2 mps 733 mmHg 40%
    18:00 +31°C° 0 mm 2 mps 733 mmHg 46%
    19:00 +30°C° 0 mm 2 mps 734 mmHg 51%
    20:00 +29°C° 0 mm 2 mps 734 mmHg 53%
    21:00 +28°C° 0 mm 1 mps 735 mmHg 55%
    22:00 +27°C° 0 mm 1 mps 735 mmHg 57%
    23:00 +26°C° 0 mm 1 mps 735 mmHg 59%
    Show more